Location: Asheville, NC
(35.6000°N, 82.5500°W)
Time: 15:56:04
(UTC-05:00)

XW-2F - Pass Details

Date: 10 January 2018
Orbit: 506 x 528 km, 97.5° (Epoch: 20 January)

Event Time Altitude Azimuth Distance (km) Brightness Sun altitude
Rises 06:04:47 0° 23° (NNE) 2,636 ? -19.0°
Reaches altitude 10° 06:07:04 10° 33° (NNE) 1,740 ? -18.5°
Maximum altitude 06:10:26 31° 97° (E) 909 ? -17.9°
Drops below altitude 10° 06:13:46 10° 161° (SSE) 1,718 ? -17.2°
Sets 06:15:59 0° 172° (S) 2,596 ? -16.8°
